�������l�o���
Date,Time,MP-1(��Sv/h),MP-2(��Sv/h),MP-3(��Sv/h),MP-4(��Sv/h),MP-5(��Sv/h),MP-6(��Sv/h),MP-7(��Sv/h),MP-8(��Sv/h),����,����(m/s),���J
2019/04/27,00:00,0.737,1.064,0.742,1.364,0.989,0.427,0.759,0.721,�k�k��,6.0,�L
2019/04/27,00:10,0.736,1.064,0.742,1.367,0.991,0.428,0.760,0.721,�k�k��,5.4,�L
2019/04/27,00:20,0.737,1.064,0.743,1.366,0.990,0.426,0.759,0.722,�k�k��,6.3,�L
2019/04/27,00:30,0.736,1.063,0.743,1.364,0.990,0.426,0.761,0.720,�k�k��,6.1,�L
2019/04/27,00:40,0.738,1.065,0.742,1.366,0.993,0.428,0.759,0.722,�k�k��,5.8,�L
2019/04/27,00:50,0.738,1.063,0.743,1.368,0.991,0.430,0.760,0.720,�k�k��,7.1,�L
2019/04/27,01:00,0.737,1.065,0.742,1.367,0.991,0.427,0.759,0.722,�k�k��,6.8,��
2019/04/27,01:10,0.738,1.062,0.743,1.366,0.990,0.427,0.761,0.722,�k�k��,7.1,��
2019/04/27,01:20,0.737,1.063,0.743,1.366,0.991,0.427,0.760,0.721,�k�k��,5.8,��
2019/04/27,01:30,0.737,1.065,0.744,1.364,0.992,0.428,0.760,0.720,�k�k��,4.8,�L
2019/04/27,01:40,0.738,1.065,0.742,1.364,0.991,0.428,0.758,0.721,�k�k��,2.8,�L
2019/04/27,01:50,0.736,1.058,0.742,1.364,0.986,0.429,0.759,0.722,�k�k��,2.0,�L
2019/04/27,02:00,0.731,1.053,0.741,1.357,0.984,0.427,0.757,0.719,�k,2.6,�L
2019/04/27,02:10,0.734,1.051,0.737,1.356,0.983,0.428,0.756,0.720,�k�k��,3.4,�L
2019/04/27,02:20,0.733,1.049,0.741,1.354,0.983,0.429,0.756,0.720,�k�k��,3.9,�L
2019/04/27,02:30,0.734,1.052,0.738,1.356,0.980,0.427,0.754,0.719,�k�k��,3.0,�L
2019/04/27,02:40,0.734,1.051,0.738,1.357,0.980,0.428,0.756,0.719,�k�k��,2.6,�L
2019/04/27,02:50,0.734,1.053,0.738,1.353,0.982,0.429,0.758,0.718,�k�k��,3.5,�L
2019/04/27,03:00,0.732,1.050,0.740,1.354,0.980,0.430,0.756,0.720,�k,3.3,�L
2019/04/27,03:10,0.732,1.051,0.736,1.355,0.981,0.429,0.756,0.717,�k��,1.2,�L
2019/04/27,03:20,0.732,1.052,0.739,1.352,0.980,0.429,0.755,0.719,�k�k��,1.7,�L
2019/04/27,03:30,0.733,1.049,0.737,1.352,0.978,0.429,0.757,0.720,�k,3.1,�L
2019/04/27,03:40,0.730,1.047,0.733,1.347,0.978,0.429,0.754,0.718,�k�k��,2.3,�L
2019/04/27,03:50,0.731,1.046,0.736,1.344,0.975,0.429,0.756,0.717,�k��,2.9,�L
2019/04/27,04:00,0.729,1.045,0.733,1.345,0.976,0.429,0.752,0.717,�k�k��,2.8,�L
2019/04/27,04:10,0.726,1.041,0.735,1.342,0.973,0.428,0.752,0.715,�k�k��,2.8,�L
2019/04/27,04:20,0.726,1.040,0.734,1.340,0.973,0.429,0.751,0.715,�k�k��,4.5,�L
2019/04/27,04:30,0.724,1.040,0.733,1.338,0.973,0.427,0.752,0.716,�k��,3.4,�L
2019/04/27,04:40,0.723,1.040,0.733,1.338,0.968,0.428,0.750,0.716,�k�k��,2.8,�L
2019/04/27,04:50,0.725,1.041,0.734,1.338,0.972,0.428,0.751,0.714,�k��,3.8,�L
2019/04/27,05:00,0.726,1.044,0.734,1.338,0.972,0.427,0.752,0.714,�k��,4.4,�L
2019/04/27,05:10,0.726,1.043,0.735,1.340,0.972,0.425,0.752,0.715,�k��,3.7,�L
2019/04/27,05:20,0.725,1.039,0.736,1.337,0.973,0.427,0.752,0.715,�k��,3.6,�L
2019/04/27,05:30,0.724,1.042,0.734,1.339,0.973,0.427,0.754,0.715,�k�k��,3.1,�L
2019/04/27,05:40,0.725,1.045,0.732,1.339,0.973,0.427,0.752,0.716,�k�k��,2.8,�L
2019/04/27,05:50,0.726,1.045,0.733,1.341,0.975,0.425,0.753,0.717,�k�k��,3.2,�L
2019/04/27,06:00,0.727,1.047,0.730,1.343,0.975,0.425,0.752,0.715,�k�k��,3.3,�L
2019/04/27,06:10,0.724,1.046,0.733,1.342,0.975,0.425,0.752,0.714,�k�k��,2.9,��
2019/04/27,06:20,0.727,1.046,0.733,1.343,0.975,0.425,0.753,0.715,�k�k��,2.9,�L
2019/04/27,06:30,0.727,1.047,0.732,1.342,0.975,0.425,0.751,0.715,�k�k��,3.2,�L
2019/04/27,06:40,0.727,1.049,0.734,1.342,0.976,0.426,0.753,0.716,�k�k��,2.6,��
2019/04/27,06:50,0.727,1.048,0.732,1.344,0.976,0.424,0.754,0.717,�k�k��,2.6,�L
2019/04/27,07:00,0.727,1.049,0.733,1.349,0.974,0.426,0.752,0.717,�k�k��,3.1,�L
2019/04/27,07:10,0.727,1.047,0.733,1.346,0.977,0.424,0.753,0.717,�k��,3.5,�L
2019/04/27,07:20,0.727,1.050,0.732,1.344,0.975,0.425,0.752,0.715,�k�k��,3.5,�L
2019/04/27,07:30,0.727,1.050,0.731,1.345,0.974,0.425,0.754,0.716,�k�k��,2.3,�L
2019/04/27,07:40,0.727,1.049,0.735,1.345,0.978,0.425,0.752,0.717,�k�k��,2.2,�L
2019/04/27,07:50,0.729,1.052,0.733,1.348,0.976,0.424,0.752,0.717,�k�k��,2.3,�L
2019/04/27,08:00,0.728,1.050,0.732,1.349,0.978,0.425,0.754,0.715,�k�k��,1.7,�L
2019/04/27,08:10,0.727,1.050,0.733,1.348,0.977,0.425,0.752,0.716,�k�k��,2.6,�L
2019/04/27,08:20,0.727,1.048,0.733,1.347,0.978,0.427,0.754,0.717,�k,2.6,�L
2019/04/27,08:30,0.729,1.050,0.733,1.346,0.978,0.424,0.752,0.717,�k,1.9,�L
2019/04/27,08:40,0.729,1.049,0.735,1.349,0.979,0.425,0.752,0.716,�k,2.8,�L
2019/04/27,08:50,0.726,1.049,0.735,1.347,0.978,0.426,0.753,0.717,�k�k��,2.9,�L
2019/04/27,09:00,0.726,1.050,0.734,1.349,0.978,0.426,0.752,0.716,�k,3.3,�L
2019/04/27,09:10,0.728,1.050,0.734,1.349,0.980,0.424,0.754,0.715,�k�k��,2.6,�L
2019/04/27,09:20,0.727,1.051,0.735,1.349,0.977,0.424,0.754,0.715,�k�k��,3.1,�L
2019/04/27,09:30,0.730,1.053,0.734,1.351,0.980,0.425,0.756,0.715,�k�k��,3.5,��
2019/04/27,09:40,0.729,1.051,0.734,1.349,0.979,0.425,0.755,0.717,�k�k��,3.8,��
2019/04/27,09:50,0.728,1.052,0.735,1.351,0.979,0.424,0.755,0.718,�k��,4.9,��
2019/04/27,10:00,0.729,1.054,0.736,1.351,0.982,0.424,0.755,0.718,�k�k��,4.1,��
2019/04/27,10:10,0.731,1.054,0.736,1.351,0.983,0.426,0.755,0.716,�k�k��,4.9,�L
2019/04/27,10:20,0.729,1.056,0.736,1.351,0.981,0.426,0.753,0.718,�k�k��,4.5,��
2019/04/27,10:30,0.732,1.054,0.737,1.349,0.982,0.427,0.754,0.718,�k�k��,5.3,��
2019/04/27,10:40,0.733,1.056,0.739,1.352,0.985,0.427,0.754,0.718,�k�k��,5.5,�L
2019/04/27,10:50,0.731,1.056,0.736,1.353,0.984,0.426,0.753,0.716,�k�k��,6.0,��
2019/04/27,11:00,0.731,1.057,0.736,1.353,0.984,0.425,0.754,0.719,�k�k��,6.8,��
2019/04/27,11:10,0.730,1.057,0.735,1.353,0.981,0.426,0.755,0.719,�k�k��,5.9,��
2019/04/27,11:20,0.731,1.058,0.736,1.356,0.984,0.427,0.753,0.718,�k�k��,5.8,��
2019/04/27,11:30,0.730,1.055,0.737,1.353,0.985,0.427,0.754,0.718,�k�k��,5.7,��
2019/04/27,11:40,0.734,1.060,0.738,1.355,0.984,0.426,0.754,0.719,�k�k��,6.3,��
2019/04/27,11:50,0.734,1.058,0.738,1.354,0.985,0.428,0.754,0.719,�k�k��,4.9,��
2019/04/27,12:00,0.735,1.060,0.736,1.354,0.984,0.427,0.753,0.720,�k�k��,5.4,��
2019/04/27,12:10,0.732,1.059,0.737,1.353,0.984,0.426,0.755,0.718,�k�k��,5.7,�L
2019/04/27,12:20,0.733,1.057,0.738,1.353,0.986,0.426,0.754,0.719,�k�k��,4.8,��
2019/04/27,12:30,0.733,1.059,0.739,1.356,0.986,0.427,0.755,0.718,�k�k��,4.7,��
2019/04/27,12:40,0.734,1.058,0.738,1.354,0.984,0.427,0.755,0.718,�k�k��,5.2,��
2019/04/27,12:50,0.734,1.059,0.739,1.353,0.986,0.426,0.756,0.719,�k�k��,4.8,��
2019/04/27,13:00,0.734,1.061,0.739,1.354,0.987,0.427,0.754,0.720,�k�k��,5.5,�L
2019/04/27,13:10,0.735,1.060,0.739,1.357,0.985,0.429,0.755,0.719,�k�k��,4.7,�L
2019/04/27,13:20,0.736,1.060,0.740,1.355,0.986,0.426,0.754,0.720,�k�k��,4.8,�L
2019/04/27,13:30,0.733,1.062,0.739,1.357,0.989,0.427,0.755,0.720,�k�k��,4.7,��
2019/04/27,13:40,0.736,1.061,0.740,1.358,0.989,0.427,0.757,0.719,�k,5.1,��
2019/04/27,13:50,0.736,1.063,0.739,1.356,0.989,0.427,0.755,0.720,�k�k��,5.2,��
2019/04/27,14:00,0.736,1.062,0.740,1.356,0.988,0.427,0.756,0.720,�k�k��,5.2,��
2019/04/27,14:10,0.737,1.064,0.740,1.358,0.989,0.427,0.755,0.720,�k�k��,5.1,��
2019/04/27,14:20,0.737,1.062,0.740,1.358,0.990,0.427,0.757,0.721,�k�k��,5.5,��
2019/04/27,14:30,0.735,1.062,0.742,1.358,0.992,0.426,0.755,0.721,�k�k��,4.8,��
2019/04/27,14:40,0.735,1.063,0.742,1.357,0.989,0.428,0.755,0.720,�k�k��,4.6,��
2019/04/27,14:50,0.737,1.063,0.740,1.359,0.992,0.428,0.756,0.719,�k�k��,5.0,��
2019/04/27,15:00,0.737,1.064,0.740,1.360,0.991,0.426,0.756,0.719,�k�k��,5.4,��
2019/04/27,15:10,0.737,1.063,0.742,1.358,0.992,0.428,0.756,0.720,�k�k��,5.7,��
2019/04/27,15:20,0.738,1.066,0.740,1.358,0.989,0.427,0.756,0.722,�k�k��,5.8,��
2019/04/27,15:30,0.737,1.064,0.742,1.358,0.989,0.426,0.755,0.720,�k�k��,6.2,��
2019/04/27,15:40,0.737,1.065,0.741,1.357,0.991,0.429,0.756,0.719,�k�k��,5.4,��
2019/04/27,15:50,0.737,1.062,0.741,1.360,0.991,0.428,0.755,0.721,�k�k��,7.0,��
2019/04/27,16:00,0.736,1.063,0.742,1.359,0.990,0.429,0.756,0.721,�k�k��,6.0,��
2019/04/27,16:10,0.736,1.064,0.741,1.362,0.988,0.427,0.756,0.721,�k�k��,4.9,��
2019/04/27,16:20,0.738,1.063,0.742,1.359,0.991,0.427,0.758,0.720,�k�k��,4.8,��
2019/04/27,16:30,0.737,1.067,0.740,1.359,0.991,0.427,0.757,0.721,�k�k��,4.5,��
2019/04/27,16:40,0.736,1.066,0.742,1.360,0.991,0.428,0.757,0.720,�k�k��,4.9,��
2019/04/27,16:50,0.736,1.064,0.743,1.361,0.991,0.429,0.756,0.720,�k�k��,5.0,��
2019/04/27,17:00,0.736,1.064,0.740,1.360,0.991,0.428,0.758,0.720,�k�k��,4.9,��
2019/04/27,17:10,0.738,1.066,0.741,1.361,0.993,0.426,0.758,0.720,�k�k��,4.7,��
2019/04/27,17:20,0.736,1.065,0.740,1.359,0.991,0.428,0.756,0.720,�k�k��,4.1,��
2019/04/27,17:30,0.737,1.064,0.742,1.360,0.991,0.427,0.757,0.721,�k�k��,3.8,��
2019/04/27,17:40,0.736,1.066,0.741,1.361,0.990,0.427,0.758,0.720,�k�k��,4.0,��
2019/04/27,17:50,0.737,1.067,0.740,1.358,0.990,0.429,0.756,0.719,�k�k��,3.7,��
2019/04/27,18:00,0.737,1.065,0.742,1.361,0.992,0.426,0.757,0.721,�k,4.1,��
2019/04/27,18:10,0.738,1.065,0.741,1.362,0.992,0.428,0.757,0.720,�k,3.7,��
2019/04/27,18:20,0.737,1.065,0.741,1.359,0.991,0.426,0.757,0.721,�k,2.8,��
2019/04/27,18:30,0.736,1.064,0.741,1.362,0.992,0.427,0.757,0.721,�k�k��,4.0,��
2019/04/27,18:40,0.738,1.069,0.743,1.362,0.992,0.427,0.758,0.720,�k�k��,4.4,��
2019/04/27,18:50,0.734,1.067,0.742,1.358,0.990,0.427,0.757,0.721,�k,5.6,��
2019/04/27,19:00,0.736,1.064,0.741,1.359,0.992,0.427,0.756,0.719,�k,5.6,�L
2019/04/27,19:10,0.736,1.066,0.741,1.360,0.992,0.427,0.757,0.720,�k,5.7,�L
2019/04/27,19:20,0.737,1.062,0.739,1.362,0.991,0.427,0.758,0.721,�k,5.4,�L
2019/04/27,19:30,0.735,1.064,0.740,1.361,0.991,0.427,0.756,0.720,�k,4.5,��
2019/04/27,19:40,0.734,1.064,0.741,1.361,0.989,0.427,0.757,0.717,�k�k��,4.1,��
2019/04/27,19:50,0.735,1.062,0.742,1.361,0.990,0.426,0.757,0.719,�k,4.7,�L
2019/04/27,20:00,0.735,1.064,0.742,1.360,0.990,0.428,0.756,0.718,�k�k��,3.7,��
2019/04/27,20:10,0.734,1.065,0.739,1.359,0.989,0.427,0.758,0.719,�k�k��,4.3,��
2019/04/27,20:20,0.736,1.062,0.742,1.363,0.990,0.426,0.758,0.720,�k,5.9,��
2019/04/27,20:30,0.734,1.062,0.742,1.361,0.991,0.427,0.756,0.722,�k,5.7,�L
2019/04/27,20:40,0.734,1.065,0.740,1.359,0.991,0.427,0.759,0.718,�k,5.1,�L
2019/04/27,20:50,0.736,1.062,0.740,1.358,0.990,0.427,0.759,0.721,�k�k��,5.5,�L
2019/04/27,21:00,0.734,1.063,0.740,1.361,0.990,0.426,0.758,0.719,�k�k��,5.6,��
2019/04/27,21:10,0.735,1.063,0.740,1.360,0.990,0.427,0.757,0.717,�k�k��,6.5,��
2019/04/27,21:20,0.735,1.067,0.739,1.359,0.991,0.425,0.758,0.720,�k�k��,5.9,��
2019/04/27,21:30,0.734,1.064,0.740,1.361,0.990,0.428,0.757,0.721,�k�k��,5.6,��
2019/04/27,21:40,0.733,1.063,0.741,1.359,0.991,0.426,0.757,0.719,�k�k��,6.2,��
2019/04/27,21:50,0.733,1.063,0.742,1.360,0.990,0.426,0.758,0.719,�k,5.9,��
2019/04/27,22:00,0.734,1.060,0.741,1.359,0.990,0.426,0.757,0.718,�k�k��,5.0,��
2019/04/27,22:10,0.735,1.062,0.741,1.360,0.990,0.426,0.759,0.720,�k,6.1,��
2019/04/27,22:20,0.735,1.064,0.739,1.361,0.992,0.427,0.758,0.721,�k,5.2,��
2019/04/27,22:30,0.735,1.064,0.741,1.362,0.991,0.426,0.758,0.720,�k,6.0,��
2019/04/27,22:40,0.735,1.061,0.740,1.361,0.989,0.426,0.757,0.719,�k,5.8,��
2019/04/27,22:50,0.732,1.061,0.741,1.360,0.989,0.428,0.758,0.720,�k,5.6,��
2019/04/27,23:00,0.732,1.061,0.739,1.361,0.991,0.428,0.758,0.721,�k,5.4,��
2019/04/27,23:10,0.733,1.063,0.740,1.363,0.990,0.427,0.757,0.718,�k,4.8,��
2019/04/27,23:20,0.733,1.064,0.740,1.363,0.989,0.426,0.757,0.720,�k,4.3,��
2019/04/27,23:30,0.735,1.061,0.740,1.361,0.990,0.426,0.757,0.719,�k,3.3,��
2019/04/27,23:40,0.733,1.061,0.740,1.362,0.987,0.427,0.758,0.720,�k,3.8,��
2019/04/27,23:50,0.734,1.064,0.739,1.362,0.991,0.426,0.757,0.720,�k,3.4,��
